Wind_Speed
32 34 35 34 33 30 28 26 23 22 20 19 17 16 14 13 13 12 11 10 9 8 7 6 6 5 5 5 4 4 3 3 2 3 2 2 3 4 5 7 8 10 11
32 34 37 36 35 33 30 28 26 24 22 21 19 18 16 15 14 13 12 11 10 9 8 8 7 6 6 5 5 5 4 4 3 3 3 3 3 4 5 7 8 10 11
34 35 38 38 37 35 33 31 29 27 25 23 22 20 18 17 16 15 14 13 12 10 9 9 8 7 7 6 6 5 5 4 4 4 4 4 4 5 6 7 9 10 11
37 37 39 40 39 38 36 33 31 29 27 26 24 22 20 19 18 17 16 15 14 12 11 10 9 9 8 7 7 6 5 5 5 5 5 5 5 6 7 8 9 10 12
41 39 41 42 41 40 38 36 34 32 30 28 26 24 23 21 20 18 18 17 15 14 13 12 11 10 9 8 7 7 6 6 6 6 6 6 6 7 7 8 9 11 12
43 41 42 43 43 42 40 38 36 34 32 30 29 27 25 23 21 20 19 18 17 16 15 14 13 12 10 9 9 8 8 7 7 7 7 7 8 8 8 9 10 11 13
46 44 45 45 45 44 42 40 38 36 34 33 31 29 27 25 24 22 21 20 19 18 17 15 14 13 12 11 10 9 9 9 9 9 8 8 9 9 9 10 11 12 14
47 47 47 47 46 46 44 42 40 38 36 35 33 31 29 27 25 24 23 22 21 19 18 17 16 15 14 12 12 11 10 10 10 10 10 9 10 10 10 11 12 13 15
48 48 48 48 48 47 46 44 42 40 38 37 35 33 31 29 27 26 25 24 23 22 20 19 18 17 15 14 13 13 12 12 11 11 11 11 11 11 12 12 14 15 16
49 49 50 49 49 49 48 46 44 42 40 39 37 35 33 31 29 28 27 26 25 24 22 21 20 19 17 16 15 15 14 14 13 13 13 13 13 13 14 14 15 17 18
50 51 51 51 50 50 50 48 46 44 42 41 39 37 35 33 31 30 29 28 27 26 24 23 22 21 19 18 17 17 16 16 15 15 15 15 15 15 15 16 17 18 19
50 51 52 52 51 51 51 50 48 46 44 42 41 39 37 35 33 31 31 30 29 27 26 25 24 23 22 21 20 19 18 18 17 17 17 17 17 17 17 18 19 20 21
50 52 54 53 51 51 52 52 50 48 46 44 42 41 39 36 34 33 33 32 31 29 28 27 25 24 24 23 22 21 20 20 19 19 19 19 19 19 20 21 22 22 23
50 53 55 54 52 51 51 53 52 51 49 46 44 43 40 38 36 35 35 34 32 31 30 28 27 27 26 25 24 23 23 22 22 22 22 22 22 22 22 23 24 25 25
52 54 56 56 53 51 51 52 53 52 50 48 47 45 42 40 39 38 36 35 34 33 32 31 30 29 28 27 26 26 25 25 24 24 24 24 24 25 25 25 26 27 27
52 55 57 59 54 50 50 51 51 52 51 50 49 47 45 43 41 40 39 38 36 35 34 33 32 30 29 29 29 29 28 27 27 27 26 27 27 27 28 28 28 29 30
52 55 56 59 57 51 50 52 51 51 52 52 51 49 47 45 43 42 41 39 38 37 36 35 34 32 31 31 31 31 30 30 29 29 29 29 29 30 30 31 31 32 32
51 53 54 56 55 51 49 49 49 49 50 50 50 50 49 47 46 44 42 41 41 40 38 37 36 34 34 34 34 33 33 32 32 31 31 32 32 32 32 33 33 33 33
49 49 51 51 51 50 49 48 49 49 48 50 51 50 50 48 47 45 44 43 43 41 40 39 38 37 37 36 36 35 35 34 34 34 34 34 34 34 34 33 33 33 33
44 44 49 49 49 48 47 46 48 48 48 48 50 50 50 51 50 48 47 45 44 43 42 41 40 39 39 38 38 37 36 36 35 35 35 35 35 35 34 34 34 34 34
41 42 45 46 46 46 44 45 46 46 48 48 47 48 50 50 51 50 48 47 47 45 43 43 41 41 41 40 39 38 38 38 37 37 36 36 35 35 34 34 35 35 35
38 39 39 41 43 43 41 43 45 45 47 48 47 46 47 48 49 49 49 48 47 46 45 44 43 42 42 41 40 40 39 39 38 38 37 36 36 36 36 36 35 35 34
35 36 35 36 38 39 40 41 43 45 45 45 46 47 48 48 47 47 48 47 46 45 45 44 43 42 42 42 41 40 40 40 38 37 37 37 37 37 37 36 36 36 35
33 32 32 33 37 37 37 40 41 43 44 43 43 44 45 47 48 47 47 46 45 45 45 46 45 42 40 41 41 41 41 40 39 38 38 38 38 38 38 37 37 37 37
29 29 29 30 32 33 34 36 37 39 41 42 43 45 46 46 47 47 46 45 44 44 45 45 45 43 42 41 41 40 39 39 40 39 38 38 39 38 37 37 37 37 37
24 25 26 27 27 27 29 31 34 36 37 41 43 44 45 45 45 46 47 46 44 45 45 44 43 43 43 42 40 39 39 40 40 40 40 39 38 37 37 37 37 37 38
Wind_Direction
244 242 241 241 241 241 241 242 242 244 246 246 246 246 247 250 254 255 257 259 263 267 271 275 281 288 295 298 298 294 288 283 278 274 281 290 305 321 334 341 345 348 351
249 244 240 239 239 239 240 240 240 241 243 244 244 244 245 247 250 252 255 256 259 262 267 271 275 280 287 290 290 286 280 275 273 272 275 283 296 312 325 332 338 343 346
253 247 242 239 238 238 238 239 239 239 240 242 242 242 243 245 247 249 252 255 257 259 263 266 271 275 281 283 283 280 274 269 268 269 273 279 289 303 316 325 333 338 342
255 248 244 240 237 237 236 237 237 238 239 240 241 241 241 243 245 246 250 253 254 256 259 262 266 270 275 278 278 275 270 266 266 269 274 278 286 297 309 319 328 333 337
256 249 243 240 237 236 235 235 235 236 237 238 239 239 240 242 244 245 247 249 251 253 256 259 262 266 270 271 272 270 266 264 265 268 272 277 284 294 304 314 322 326 330
255 248 243 239 237 235 234 234 234 235 235 237 238 238 238 240 243 245 246 247 249 251 253 257 260 263 265 266 267 266 264 262 263 266 270 276 284 292 301 309 315 320 324
252 246 241 238 236 234 233 232 233 233 234 236 237 237 237 239 241 243 245 246 248 250 252 255 258 260 262 264 265 264 263 262 264 267 271 277 285 292 299 306 311 316 320
250 245 241 237 234 233 232 232 232 232 233 234 236 237 237 238 240 242 244 245 247 249 251 253 256 258 259 261 263 263 262 262 265 269 273 278 283 289 296 301 306 310 314
248 243 238 235 233 232 231 231 231 231 232 234 235 236 236 237 239 241 243 244 247 249 251 252 254 256 257 259 261 261 261 262 265 268 272 276 281 286 292 297 302 306 310
245 240 235 234 232 231 230 230 230 230 231 233 234 235 236 237 239 241 243 245 247 249 250 252 253 254 255 257 258 260 261 263 265 268 271 275 280 285 290 295 299 303 307
241 237 232 231 231 231 230 229 229 230 231 232 234 235 236 237 239 242 244 245 247 248 250 251 252 254 255 256 257 258 260 262 265 268 271 275 278 283 287 292 296 300 304
237 233 230 229 230 230 229 229 229 230 231 232 234 235 236 237 239 242 244 246 247 249 250 251 252 253 254 256 257 258 260 262 265 267 270 273 277 281 285 289 293 297 301
233 229 226 226 227 228 229 228 228 230 231 232 233 235 236 237 239 241 243 245 247 249 250 251 252 254 254 256 257 259 261 263 265 267 269 272 276 280 284 288 292 295 298
230 225 223 223 224 225 227 227 227 229 230 232 233 235 236 237 239 241 243 245 247 248 249 250 253 254 255 256 257 259 262 263 265 267 269 272 276 279 283 287 290 293 296
227 222 221 221 221 222 225 226 226 227 229 231 233 234 235 237 238 240 242 245 246 247 248 250 252 253 254 256 257 260 262 264 266 267 270 272 276 279 282 286 289 292 294
226 222 220 219 220 221 222 225 226 227 229 230 231 233 234 236 237 240 242 244 245 247 248 249 251 252 254 256 259 260 262 264 266 268 270 272 276 279 282 284 287 290 293
223 221 220 219 220 221 224 226 225 227 228 229 230 231 233 235 237 239 241 243 245 246 247 248 250 252 254 257 259 261 263 265 267 268 269 272 275 278 281 284 286 289 292
222 220 219 219 220 223 225 226 225 227 229 229 230 231 232 235 237 238 240 242 245 246 247 248 250 251 254 257 259 261 263 265 267 268 270 272 275 278 281 283 286 288 290
221 221 220 218 219 222 225 225 224 225 226 228 230 232 233 234 235 237 239 242 244 245 246 248 250 252 255 258 259 260 262 265 267 269 271 274 276 278 280 283 285 288 290
219 220 219 219 218 219 221 221 222 224 225 228 230 231 233 234 235 237 239 242 243 244 246 249 250 253 256 258 259 260 262 264 266 269 272 275 277 278 280 282 284 287 290
217 217 218 219 218 218 221 221 222 224 225 226 229 231 233 235 237 239 240 244 245 246 249 250 251 254 257 259 260 261 263 265 267 269 272 275 276 278 280 282 284 287 290
214 214 216 217 215 216 220 223 225 225 224 225 227 230 233 236 239 241 243 245 247 249 251 252 252 254 257 259 261 263 264 265 267 269 272 273 275 277 279 282 284 287 290
214 213 215 215 214 215 219 220 224 225 225 227 229 231 233 236 238 241 243 245 247 250 251 253 255 255 258 260 262 263 264 266 267 269 271 273 276 278 280 281 283 287 289
214 215 214 214 214 215 217 219 223 227 227 228 229 231 234 237 238 241 242 244 246 250 252 253 256 257 259 260 262 263 264 266 267 268 270 272 274 277 279 281 284 287 289
214 214 214 214 214 216 217 219 224 226 227 228 230 232 234 237 239 241 243 245 248 251 252 253 255 256 258 260 262 261 263 266 268 269 269 271 273 275 277 280 284 287 289
215 215 215 213 211 214 217 221 224 225 228 231 232 235 238 240 242 243 245 248 251 253 254 254 254 256 257 260 261 260 262 265 268 268 268 270 273 275 278 280 283 286 288
Height
5851 5852 5855 5857 5860 5863 5865 5867 5869 5871 5872 5873 5874 5875 5875 5876 5877 5877 5878 5878 5878 5878 5878 5878 5878 5877 5877 5877 5877 5876 5876 5876 5877 5877 5877 5877 5877 5877 5876 5876 5875 5875 5873
5845 5847 5850 5852 5855 5858 5861 5863 5866 5867 5869 5870 5871 5872 5873 5874 5875 5875 5876 5876 5877 5877 5877 5877 5877 5877 5876 5876 5876 5876 5876 5876 5876 5876 5876 5876 5876 5876 5876 5875 5875 5874 5873
5839 5842 5844 5847 5850 5853 5856 5859 5861 5864 5865 5867 5868 5869 5870 5871 5872 5873 5874 5875 5875 5875 5876 5876 5876 5875 5875 5875 5875 5875 5875 5875 5875 5875 5875 5875 5875 5875 5875 5874 5874 5873 5871
5832 5835 5838 5841 5844 5847 5851 5854 5857 5859 5861 5863 5865 5866 5867 5869 5870 5871 5872 5873 5873 5874 5874 5874 5874 5874 5874 5874 5874 5873 5874 5874 5874 5874 5874 5874 5874 5874 5873 5873 5872 5871 5870
5824 5828 5831 5834 5838 5841 5845 5848 5851 5854 5857 5859 5860 5862 5864 5865 5867 5868 5869 5870 5871 5872 5872 5872 5873 5873 5872 5872 5872 5872 5872 5872 5872 5872 5873 5873 5872 5872 5872 5871 5871 5870 5869
5815 5820 5823 5827 5831 5835 5839 5842 5846 5849 5852 5854 5856 5858 5860 5862 5863 5865 5866 5867 5868 5869 5870 5870 5870 5871 5871 5871 5871 5871 5871 5871 5871 5871 5871 5871 5871 5871 5870 5870 5869 5868 5867
5806 5811 5815 5819 5824 5828 5832 5836 5840 5843 5846 5849 5851 5854 5856 5858 5860 5861 5863 5864 5865 5866 5867 5868 5868 5868 5869 5869 5869 5869 5869 5869 5869 5869 5869 5869 5869 5869 5868 5868 5867 5866 5865
5797 5802 5807 5811 5816 5821 5826 5830 5834 5837 5840 5843 5846 5849 5851 5853 5856 5857 5859 5860 5862 5863 5864 5865 5865 5866 5866 5866 5867 5867 5867 5867 5867 5867 5867 5867 5867 5867 5866 5866 5865 5864 5863
5787 5793 5798 5803 5808 5813 5818 5823 5827 5831 5834 5837 5841 5843 5846 5849 5851 5853 5855 5857 5858 5859 5860 5861 5862 5863 5863 5864 5864 5864 5865 5865 5865 5865 5865 5865 5865 5865 5864 5864 5863 5862 5861
5778 5783 5789 5794 5799 5805 5810 5816 5820 5824 5828 5831 5835 5838 5841 5844 5846 5848 5850 5852 5854 5855 5857 5858 5859 5860 5860 5861 5861 5862 5862 5862 5862 5862 5862 5862 5862 5862 5862 5861 5860 5859 5858
5769 5774 5780 5785 5791 5797 5802 5808 5813 5817 5821 5825 5829 5832 5835 5838 5841 5844 5846 5848 5850 5851 5853 5854 5855 5856 5857 5857 5858 5858 5859 5859 5859 5859 5859 5859 5859 5859 5859 5858 5857 5856 5855
5759 5765 5771 5777 5783 5788 5794 5800 5806 5811 5815 5819 5823 5826 5830 5833 5836 5839 5841 5843 5845 5847 5848 5850 5851 5852 5853 5854 5854 5855 5855 5856 5856 5856 5856 5856 5856 5856 5855 5855 5854 5853 5851
5750 5756 5762 5768 5774 5780 5786 5792 5798 5803 5808 5812 5816 5820 5823 5827 5831 5833 5835 5838 5840 5842 5844 5845 5846 5848 5849 5850 5850 5851 5851 5852 5852 5852 5852 5852 5852 5852 5852 5851 5850 5849 5848
5740 5746 5753 5760 5765 5771 5776 5783 5789 5795 5800 5805 5809 5813 5817 5821 5825 5827 5830 5832 5835 5837 5839 5840 5842 5843 5844 5845 5846 5846 5847 5848 5848 5848 5848 5848 5848 5848 5847 5847 5846 5845 5843
5730 5737 5744 5750 5756 5762 5767 5774 5780 5787 5792 5797 5802 5806 5811 5815 5818 5821 5824 5826 5829 5831 5833 5835 5836 5838 5839 5840 5841 5842 5842 5843 5844 5844 5844 5844 5843 5843 5842 5842 5841 5840 5839
5721 5728 5735 5742 5748 5753 5759 5765 5772 5778 5784 5789 5794 5799 5803 5807 5811 5814 5817 5820 5822 5825 5827 5829 5830 5832 5834 5835 5836 5836 5837 5838 5838 5839 5839 5838 5838 5838 5837 5836 5835 5834 5833
5712 5719 5726 5733 5740 5746 5752 5758 5764 5770 5776 5781 5786 5791 5795 5799 5803 5807 5810 5813 5816 5818 5820 5822 5824 5826 5827 5829 5830 5831 5832 5832 5833 5833 5833 5833 5833 5832 5831 5831 5830 5828 5827
5704 5711 5718 5726 5732 5739 5745 5751 5757 5762 5768 5773 5778 5783 5787 5791 5795 5799 5803 5806 5808 5811 5813 5815 5817 5819 5821 5822 5824 5825 5825 5826 5826 5827 5827 5827 5827 5826 5825 5824 5823 5822 5821
5697 5704 5712 5719 5726 5732 5738 5744 5750 5755 5760 5765 5770 5775 5779 5783 5787 5791 5795 5798 5801 5803 5806 5808 5810 5812 5814 5815 5817 5818 5819 5819 5820 5820 5820 5820 5820 5820 5819 5818 5817 5816 5814
5691 5698 5705 5712 5719 5726 5731 5737 5742 5747 5752 5757 5762 5766 5771 5775 5779 5783 5786 5790 5793 5796 5798 5801 5803 5805 5807 5808 5809 5811 5812 5812 5813 5813 5813 5813 5813 5812 5812 5811 5810 5809 5807
5685 5693 5700 5707 5713 5720 5725 5730 5735 5741 5746 5750 5754 5759 5764 5768 5771 5775 5778 5782 5785 5788 5790 5793 5795 5797 5799 5800 5802 5803 5804 5805 5805 5805 5805 5806 5805 5805 5804 5804 5803 5802 5801
5681 5688 5695 5702 5708 5714 5719 5724 5730 5734 5738 5743 5747 5751 5756 5760 5764 5768 5771 5774 5777 5780 5782 5785 5787 5789 5791 5792 5794 5795 5796 5798 5797 5798 5798 5797 5797 5797 5796 5796 5795 5794 5793
5677 5684 5690 5696 5702 5708 5713 5718 5723 5727 5731 5736 5740 5744 5748 5752 5756 5759 5763 5766 5769 5772 5774 5776 5778 5780 5782 5784 5785 5787 5788 5789 5790 5790 5789 5789 5789 5789 5788 5788 5787 5786 5785
5674 5680 5686 5692 5698 5703 5707 5712 5717 5721 5726 5730 5733 5737 5741 5745 5748 5752 5755 5758 5761 5763 5766 5768 5770 5772 5774 5775 5776 5778 5779 5780 5781 5782 5782 5781 5781 5781 5780 5779 5779 5778 5776
5671 5677 5683 5688 5693 5698 5703 5707 5711 5715 5719 5723 5727 5730 5734 5737 5741 5744 5747 5751 5753 5755 5758 5759 5762 5764 5765 5767 5768 5769 5769 5770 5771 5772 5773 5773 5773 5772 5771 5771 5770 5769 5768
5670 5675 5680 5685 5689 5693 5698 5702 5706 5709 5713 5716 5720 5723 5727 5731 5734 5737 5740 5743 5745 5747 5749 5751 5753 5755 5756 5758 5759 5760 5761 5761 5762 5762 5763 5763 5764 5764 5763 5762 5761 5760 5759